^^
Mint Hill Weather Station Historical Data
 
Daily Summary for May 24, 2015 Units:  English    Metric   Both
« Previous Day
Next Day »
Daily Weekly Monthly Yearly Custom
  Current: High: Low: Average:
Temperature: 53.3 °F 60.7 °F 53.3 °F 56.7 °F
Dew Point: 50.4 °F 52.9 °F 50.1 °F 51.4 °F
Humidity: 90% 90% 74% 83%
Wind Speed: 0.0mph 0.3mph 0.0mph 0mph
Wind Gust: 0.0mph 1.1mph - -
WindCalm - - SSW
Pressure: 30.40 in 30.40 in 30.34 in -
Precipitation: 0.00 in      
Historical Graphs
 
 
Tabular Data for May 24, 2015
Time Temperature Dew Point Pressure Wind Wind Speed Wind Gust Humidity Rainfall Rate (Hourly) solar Conditions
00:04 60.7 °F 52.7 °F 30.35 in Calm     75% 0.00 in 0.0 W/m2 CLR
00:09 60.5 °F 52.9 °F 30.35 in Calm     76% 0.00 in 0.0 W/m2 CLR
00:14 60.4 °F 52.8 °F 30.35 in Calm     76% 0.00 in 0.0 W/m2 CLR
00:19 60.3 °F 52.3 °F 30.35 in Calm     75% 0.00 in 0.0 W/m2 CLR
00:24 60.2 °F 52.3 °F 30.35 in Calm     75% 0.00 in 0.0 W/m2 CLR
00:29 60.1 °F 52.1 °F 30.35 in Calm     75% 0.00 in 0.0 W/m2 CLR
00:34 59.9 °F 52.0 °F 30.35 in Calm     75% 0.00 in 0.0 W/m2 CLR
00:39 59.8 °F 52.6 °F 30.36 in Calm     77% 0.00 in 0.0 W/m2 CLR
00:44 59.7 °F 51.7 °F 30.36 in Calm     75% 0.00 in 0.0 W/m2 CLR
00:49 59.6 °F 51.3 °F 30.36 in Calm     74% 0.00 in 0.0 W/m2 CLR
00:54 59.4 °F 51.5 °F 30.36 in Calm     75% 0.00 in 0.0 W/m2 CLR
00:59 59.3 °F 51.4 °F 30.36 in Calm     75% 0.00 in 0.0 W/m2 CLR
01:04 59.2 °F 52.0 °F 30.35 in Calm     77% 0.00 in 0.0 W/m2 CLR
01:09 59.0 °F 51.8 °F 30.35 in Calm     77% 0.00 in 0.0 W/m2 CLR
01:14 58.9 °F 51.7 °F 30.36 in Calm     77% 0.00 in 0.0 W/m2 CLR
01:19 58.8 °F 52.0 °F 30.35 in Calm     78% 0.00 in 0.0 W/m2 CLR
01:24 58.6 °F 52.1 °F 30.35 in SSW 0.3 mph   79% 0.00 in 0.0 W/m2 CLR
01:29 58.5 °F 51.7 °F 30.35 in Calm     78% 0.00 in 0.0 W/m2 CLR
01:34 58.5 °F 51.7 °F 30.35 in Calm     78% 0.00 in 0.0 W/m2 CLR
01:39 58.5 °F 51.7 °F 30.35 in Calm     78% 0.00 in 0.0 W/m2 CLR
01:44 58.4 °F 51.9 °F 30.35 in Calm     79% 0.00 in 0.0 W/m2 CLR
01:49 58.4 °F 51.9 °F 30.35 in SSW 0.1 mph 1.1 mph 79% 0.00 in 0.0 W/m2 CLR
01:54 58.4 °F 51.9 °F 30.35 in Calm     79% 0.00 in 0.0 W/m2 CLR
01:59 58.3 °F 51.5 °F 30.35 in Calm     78% 0.00 in 0.0 W/m2 CLR
02:04 58.3 °F 51.8 °F 30.34 in Calm     79% 0.00 in 0.0 W/m2 CLR
02:09 58.3 °F 51.8 °F 30.34 in SSW 0.1 mph   79% 0.00 in 0.0 W/m2 CLR
02:14 58.2 °F 52.1 °F 30.34 in Calm     80% 0.00 in 0.0 W/m2 CLR
02:19 58.2 °F 52.1 °F 30.34 in Calm     80% 0.00 in 0.0 W/m2 CLR
02:24 58.2 °F 51.7 °F 30.34 in Calm     79% 0.00 in 0.0 W/m2 CLR
02:29 58.2 °F 51.7 °F 30.34 in Calm     79% 0.00 in 0.0 W/m2 CLR
02:34 58.1 °F 51.6 °F 30.34 in Calm     79% 0.00 in 0.0 W/m2 CLR
02:39 58.0 °F 51.9 °F 30.34 in Calm     80% 0.00 in 0.0 W/m2 CLR
02:44 57.9 °F 51.8 °F 30.34 in Calm     80% 0.00 in 0.0 W/m2 CLR
02:49 57.8 °F 51.7 °F 30.34 in Calm     80% 0.00 in 0.0 W/m2 CLR
02:54 57.7 °F 51.6 °F 30.35 in Calm     80% 0.00 in 0.0 W/m2 CLR
03:00 57.6 °F 51.5 °F 30.34 in Calm     80% 0.00 in 0.0 W/m2 CLR
03:05 57.6 °F 51.4 °F 30.34 in Calm     80% 0.00 in 0.0 W/m2 CLR
03:10 57.5 °F 51.7 °F 30.34 in Calm     81% 0.00 in 0.0 W/m2 CLR
03:15 57.3 °F 51.9 °F 30.35 in Calm     82% 0.00 in 0.0 W/m2 CLR
03:20 57.2 °F 52.1 °F 30.35 in Calm     83% 0.00 in 0.0 W/m2 CLR
03:25 57.1 °F 51.7 °F 30.35 in Calm     82% 0.00 in 0.0 W/m2 CLR
03:30 57.0 °F 51.9 °F 30.35 in Calm     83% 0.00 in 0.0 W/m2 CLR
03:35 56.9 °F 51.8 °F 30.35 in Calm     83% 0.00 in 0.0 W/m2 CLR
03:40 56.7 °F 51.9 °F 30.35 in Calm     84% 0.00 in 0.0 W/m2 CLR
03:45 56.6 °F 51.8 °F 30.35 in Calm     84% 0.00 in 0.0 W/m2 CLR
03:50 56.5 °F 51.7 °F 30.35 in Calm     84% 0.00 in 0.0 W/m2 CLR
03:55 56.4 °F 51.6 °F 30.35 in Calm     84% 0.00 in 0.0 W/m2 CLR
04:00 56.3 °F 51.8 °F 30.35 in Calm     85% 0.00 in 0.0 W/m2 CLR
04:05 56.1 °F 51.7 °F 30.36 in Calm     85% 0.00 in 0.0 W/m2 CLR
04:15 55.9 °F 51.5 °F 30.36 in Calm     85% 0.00 in 0.0 W/m2 CLR
04:20 55.8 °F 51.4 °F 30.36 in Calm     85% 0.00 in 0.0 W/m2 CLR
04:25 55.6 °F 51.2 °F 30.36 in Calm     85% 0.00 in 0.0 W/m2 CLR
04:30 55.6 °F 51.2 °F 30.36 in Calm     85% 0.00 in 0.0 W/m2 CLR
04:35 55.4 °F 51.3 °F 30.36 in Calm     86% 0.00 in 0.0 W/m2 CLR
04:40 55.3 °F 51.2 °F 30.36 in Calm     86% 0.00 in 0.0 W/m2 CLR
04:45 55.2 °F 51.1 °F 30.36 in Calm     86% 0.00 in 0.0 W/m2 CLR
04:50 55.0 °F 50.9 °F 30.36 in Calm     86% 0.00 in 0.0 W/m2 CLR
04:55 54.9 °F 51.1 °F 30.36 in Calm     87% 0.00 in 0.0 W/m2 CLR
05:00 54.8 °F 51.0 °F 30.36 in Calm     87% 0.00 in 0.0 W/m2 CLR
05:05 54.7 °F 50.9 °F 30.36 in Calm     87% 0.00 in 0.0 W/m2 CLR
05:10 54.5 °F 50.7 °F 30.36 in Calm     87% 0.00 in 0.0 W/m2 CLR
05:15 54.4 °F 50.6 °F 30.36 in Calm     87% 0.00 in 0.0 W/m2 CLR
05:20 54.3 °F 50.5 °F 30.36 in Calm     87% 0.00 in 0.0 W/m2 CLR
05:25 54.2 °F 50.4 °F 30.36 in Calm     87% 0.00 in 0.0 W/m2 CLR
05:30 54.1 °F 50.3 °F 30.36 in Calm     87% 0.00 in 0.0 W/m2 CLR
05:35 54.0 °F 50.2 °F 30.36 in Calm     87% 0.00 in 0.0 W/m2 CLR
05:40 53.9 °F 50.4 °F 30.36 in Calm     88% 0.00 in 0.0 W/m2 CLR
05:45 53.8 °F 50.3 °F 30.36 in Calm     88% 0.00 in 0.0 W/m2 CLR
05:50 53.7 °F 50.2 °F 30.36 in Calm     88% 0.00 in 0.0 W/m2 CLR
05:55 53.7 °F 50.2 °F 30.36 in Calm     88% 0.00 in 0.0 W/m2 CLR
06:00 53.7 °F 50.5 °F 30.37 in Calm     89% 0.00 in 0.0 W/m2 CLR
06:05 53.7 °F 50.5 °F 30.37 in Calm     89% 0.00 in 0.0 W/m2 CLR
06:10 53.6 °F 50.1 °F 30.37 in Calm     88% 0.00 in 0.0 W/m2 CLR
06:20 53.5 °F 50.3 °F 30.38 in Calm     89% 0.00 in 0.0 W/m2 CLR
06:25 53.5 °F 50.3 °F 30.38 in Calm     89% 0.00 in 6.0 W/m2 CLR
06:30 53.4 °F 50.2 °F 30.39 in Calm     89% 0.00 in 8.4 W/m2 CLR
06:35 53.3 °F 50.2 °F 30.39 in Calm     89% 0.00 in 10.8 W/m2 CLR
06:40 53.3 °F 50.1 °F 30.39 in Calm     89% 0.00 in 13.2 W/m2 CLR
06:45 53.3 °F 50.4 °F 30.39 in Calm     90% 0.00 in 14.4 W/m2 CLR
06:50 53.3 °F 50.4 °F 30.39 in Calm     90% 0.00 in 14.4 W/m2 CLR
06:55 53.3 °F 50.4 °F 30.40 in Calm     90% 0.00 in 16.8 W/m2 CLR
07:00 53.3 °F 50.4 °F 30.40 in Calm     90% 0.00 in 19.2 W/m2 CLR
Mint Hill, North Carolina, USA
Compliments of Weather Underground